Regional Weather Roundup
Issued by NWS Northern Indiana

Home | Current Version | Previous Version | Graphics & Text | Print | Product List | Glossary On
Versions: 1 2 3 4 5 6 7 8 9 10 11 12 13 14 15 16 17 18 19 20 21 22 23 24 25 26 27 28 29 30 31 32 33 34 35 36 37 38 39 40 41 42 43 44 45 46 47 48 49 50
465
ASUS43 KIWX 241010
RWRIWX

KIWX WEATHER ROUNDUP
NATIONAL WEATHER SERVICE NORTHERN INDIANA
600 AM EDT FRI MAR 24 2017

NOTE: "FAIR" INDICATES FEW OR NO CLOUDS BELOW 12,000 FEET WITH NO
SIGNIFICANT WEATHER AND/OR OBSTRUCTIONS TO VISIBILITY.

* THESE STATIONS ARE NOT UNDER NWS QUALITY CONTROL. THEY ALSO MAY NOT
  REPORT WEATHER SUCH AS PRECIPITATION OR FOG.

INZ001>027-241100-
NORTHERN INDIANA

CITY           SKY/WX    TMP DP  RH WIND       PRES   REMARKS
GARY*          CLOUDY    48  36  61 S10       29.93F
VALPARAISO     CLOUDY    48  38  68 S8        29.96F
MICHIGAN CITY* CLOUDY    48  36  61 S7        29.96F
LAPORTE*       CLOUDY    46  37  71 S5        29.97F
KNOX*          CLOUDY    45  21  39 S9        29.97F
SOUTH BEND     CLOUDY    47  38  71 S9        29.97F
GOSHEN         PTCLDY    50  37  61 S10       29.99F
MONTICELLO*    CLOUDY    47  39  71 CALM      29.99S
LOGANSPORT*    PTCLDY    46  39  76 S7        30.02R
ROCHESTER*     MOCLDY    50  37  62 S6        30.01S
WARSAW*        PTCLDY    48  37  66 S5        30.01R
ANGOLA*        CLEAR     45  34  65 S6        30.01R
FORT WAYNE     MOCLDY    45  38  76 S8        30.04S
HUNTINGTON*    PTCLDY    50  40  69 S7        30.03R
PERU/GRISSOM   CLOUDY    47  42  80 S7        29.99S
MARION*        CLOUDY    50  41  69 S16       30.04R

$$
INZ028>050-241100-
CENTRAL INDIANA

CITY           SKY/WX    TMP DP  RH WIND       PRES   REMARKS
LAFAYETTE      PTCLDY    54  44  69 S7        29.99S
KOKOMO*        PTCLDY    49  41  74 S9        30.02
MUNCIE*        CLOUDY    54  41  61 S13       30.05S
INDIANAPOLIS   PTCLDY    55  43  63 S12       30.05R

$$
MIZ043>046-050>051-056>058-064>065-071>073-077>080-241100-
SOUTHWEST LOWER MICHIGAN

CITY           SKY/WX    TMP DP  RH WIND       PRES   REMARKS
BATTLE CREEK   CLOUDY    47  38  71 S13       29.97F
BENTON HARBOR  PTCLDY    51  37  58 S10       29.94F
COLDWATER*     PTCLDY    48  37  66 S9        29.99S
HILLSDALE*     MOCLDY    43  36  75 S8        30.00S
HOLLAND        PTCLDY    45  37  73 S6        29.92F
GRAND RAPIDS   CLOUDY    43  36  76 S7        29.93F
KALAMAZOO      CLOUDY    46  37  71 S10       29.96F
STURGIS*       CLOUDY    47  39  72 S7        29.99S
THREE RIVERS*  FAIR      46  38  73 S12       29.97F

$$
OHZ001>008-015>018-024>025-241100-
NORTHWEST OHIO

CITY           SKY/WX    TMP DP  RH WIND       PRES   REMARKS
WAUSEON*       CLOUDY    45  39  81 S10       30.03S
DEFIANCE       PTCLDY    49  37  63 S12       30.04F
FINDLAY        CLOUDY    50  37  61 S15       30.06F
TOLEDO EXPRESS CLEAR     43  38  82 S6        30.04F
TOLEDO METCALF CLOUDY    47  37  68 S13       30.05F
LIMA           CLOUDY    51  38  60 S17       30.08F

$$
AND FOR LAKE MICHIGAN COASTAL AND OPEN LAKE BUOY OBSERVATIONS

STATION/POSITION TEMP    WIND        PRES    VSBY  WAVE
                 AIR SEA DIR/SP/G                  HT/PER
                 (F)     (DEG/KT/KT) (MB)    (MI)  (FT/S)
CALUMET HARBOR    47     170/  7/ 10 1012.7F
MICHIGAN CITY     50     160/ 10/ 16   N/A
BURNS HARBOR      50     180/ 14/ 20 1014.2F

$$
&&




USA.gov is the U.S. government's official web portal to all federal, state and local government web resources and services.